Terminal Aerodrome Forecast
Issued by NWS

Home | Current Version | Previous Version | Text Only | Print | Product List | Glossary On
Versions: 1 2 3 4 5 6 7 8 9 10 11 12 13 14 15 16 17 18 19 20 21 22 23 24 25 26 27 28 29 30 31 32 33 34 35 36 37 38 39 40 41 42 43 44 45 46 47 48 49 50
000
FTUS43 KMKX 201847 AAA
TAFENW
TAF AMD
KENW 201847Z 2019/2118 24013G20KT P6SM VCTS SCT030 BKN080CB
     FM202000 24013G20KT 3SM TSRA BKN030CB
     FM202200 25012G19KT P6SM VCTS BKN030CB
     FM210100 25007KT P6SM SCT060
     FM210500 26006KT P6SM VCTS BKN060CB
     FM211000 28010G20KT P6SM SCT015
     FM211200 28013G21KT P6SM BKN020
     FM211700 33015G24KT P6SM BKN025=

USA.gov is the U.S. government's official web portal to all federal, state and local government web resources and services.